Terminal Aerodrome Forecast
Issued by NWS Portland, OR

Home | Current Version | Previous Version | Text Only | Print | Product List | Glossary On
Versions: 1 2 3 4 5 6 7 8 9 10 11 12 13 14 15 16 17 18 19 20 21 22 23 24 25 26 27 28 29 30 31 32 33 34 35 36 37 38 39 40 41
000
FTUS46 KPQR 271418 AAA
TAFHIO
TAF AMD
KHIO 271418Z 2714/2812 VRB03KT 5SM BR SCT005 OVC025
     FM271900 20004KT 5SM -RA BR SCT008 BKN018 OVC035
     FM272300 25010KT P6SM -RA BKN025 OVC035
     FM280500 25006KT 4SM BR OVC015=

USA.gov is the U.S. government's official web portal to all federal, state and local government web resources and services.